New Jersey Responder — WBO8578 — position and weather

sailwx.info

Track history (hours):
 
Tides and Currents Weather Stations Pressure Air Temp Water Temp Dewpoint Dewpoint Depression Visibility Wind Speed Wind Dir Waves Ship Positions

New Jersey Responder

Owner: MARINE SPILL RESPONSE CORP, HERNDON, VA. More information available from US FCC via Universal Licensing System and Coast Guard Vessel Documentation Center.

Last reported at 2015-Jul-01 18:33 UTC. Time now 2015-Jul-01 21:06 UTC.
Position N 40°32' W 074°15'.

; draft 4 m.

Type: Pollution control. MMSI: 366594000.

Date/timePositionNaut miles runAvg speedWind from/ knotsBaromVisibWave heightAir tempDewpointWater temp
2015-Jul-01 18:33N 40°32' W 074°15'0 0.0
2015-Jul-01 06:06N 40°32' W 074°15'0 0.0
2015-Jul-01 05:12N 40°32' W 074°15'0 0.0
2015-Jul-01 04:30N 40°32' W 074°15'0 0.0
2015-Jul-01 03:33N 40°32' W 074°15'0 0.0
2015-Jul-01 02:30N 40°32' W 074°15'0 0.0
2015-Jul-01 01:33N 40°32' W 074°15'0 0.0
2015-Jul-01 00:33N 40°32' W 074°15'0 0.0
2015-Jun-30 23:27N 40°32' W 074°15'0 0.0
2015-Jun-30 20:12N 40°32' W 074°15'0 0.0
2015-Jun-30 19:31N 40°32' W 074°15'6 6.7
2015-Jun-30 18:33N 40°38' W 074°12'7 7.0
2015-Jun-30 17:33N 40°39' W 074°03'9 9.2
2015-Jun-30 16:33N 40°30' W 074°04'2 2.0
2015-Jun-30 15:21N 40°30' W 074°07'1 1.4
2015-Jun-30 14:32N 40°30' W 074°08'0 0.1
2015-Jun-30 13:33N 40°30' W 074°08'0 0.2
2015-Jun-30 12:33N 40°30' W 074°08'5 5.2
2015-Jun-30 11:32N 40°32' W 074°15'0 0.0
2015-Jun-30 10:33N 40°32' W 074°15'0 0.0
2015-Jun-30 09:07N 40°32' W 074°15'0 0.0
2015-Jun-30 08:31N 40°32' W 074°15'0 0.0
2015-Jun-30 07:31N 40°32' W 074°15'0 0.0
2015-Jun-29 23:22N 40°32' W 074°15'0 0.0
2015-Jun-28 17:28N 40°32' W 074°15'0 0.0
2015-Jun-27 14:31N 40°32' W 074°15'0 0.0
2015-Jun-27 12:28N 40°32' W 074°15'0 0.0
2015-Jun-26 10:25N 40°32' W 074°15'6 0.4
2015-Jun-25 17:31N 40°30' W 074°07'1 0.9
2015-Jun-25 16:28N 40°30' W 074°06'1 1.1
2015-Jun-25 15:18N 40°30' W 074°08'0 0.4
2015-Jun-25 14:27N 40°30' W 074°07'0 0.3
2015-Jun-25 13:33N 40°30' W 074°08'6 0.2
2015-Jun-24 05:17N 40°32' W 074°15'0 0.0
2015-Jun-24 04:32N 40°32' W 074°15'  
Track history (hours):
 
Tides and Currents Weather Stations Pressure Air Temp Water Temp Dewpoint Dewpoint Depression Visibility Wind Speed Wind Dir Waves Ship Positions

New Jersey Responder

Owner: MARINE SPILL RESPONSE CORP, HERNDON, VA. More information available from US FCC via Universal Licensing System and Coast Guard Vessel Documentation Center.

Last reported at 2015-Jul-01 18:33 UTC. Time now 2015-Jul-01 21:06 UTC.
Position N 40°32' W 074°15'.

; draft 4 m.

Type: Pollution control. MMSI: 366594000.

Date/timePositionNaut miles runAvg speedWind from/ knotsBaromVisibWave heightAir tempDewpointWater temp
2015-Jul-01 18:33N 40°32' W 074°15'0 0.0
2015-Jul-01 06:06N 40°32' W 074°15'0 0.0
2015-Jul-01 05:12N 40°32' W 074°15'0 0.0
2015-Jul-01 04:30N 40°32' W 074°15'0 0.0
2015-Jul-01 03:33N 40°32' W 074°15'0 0.0
2015-Jul-01 02:30N 40°32' W 074°15'0 0.0
2015-Jul-01 01:33N 40°32' W 074°15'0 0.0
2015-Jul-01 00:33N 40°32' W 074°15'0 0.0
2015-Jun-30 23:27N 40°32' W 074°15'0 0.0
2015-Jun-30 20:12N 40°32' W 074°15'0 0.0
2015-Jun-30 19:31N 40°32' W 074°15'6 6.7
2015-Jun-30 18:33N 40°38' W 074°12'7 7.0
2015-Jun-30 17:33N 40°39' W 074°03'9 9.2
2015-Jun-30 16:33N 40°30' W 074°04'2 2.0
2015-Jun-30 15:21N 40°30' W 074°07'1 1.4
2015-Jun-30 14:32N 40°30' W 074°08'0 0.1
2015-Jun-30 13:33N 40°30' W 074°08'0 0.2
2015-Jun-30 12:33N 40°30' W 074°08'5 5.2
2015-Jun-30 11:32N 40°32' W 074°15'0 0.0
2015-Jun-30 10:33N 40°32' W 074°15'0 0.0
2015-Jun-30 09:07N 40°32' W 074°15'0 0.0
2015-Jun-30 08:31N 40°32' W 074°15'0 0.0
2015-Jun-30 07:31N 40°32' W 074°15'0 0.0
2015-Jun-29 23:22N 40°32' W 074°15'0 0.0
2015-Jun-28 17:28N 40°32' W 074°15'0 0.0
2015-Jun-27 14:31N 40°32' W 074°15'0 0.0
2015-Jun-27 12:28N 40°32' W 074°15'0 0.0
2015-Jun-26 10:25N 40°32' W 074°15'6 0.4
2015-Jun-25 17:31N 40°30' W 074°07'1 0.9
2015-Jun-25 16:28N 40°30' W 074°06'1 1.1
2015-Jun-25 15:18N 40°30' W 074°08'0 0.4
2015-Jun-25 14:27N 40°30' W 074°07'0 0.3
2015-Jun-25 13:33N 40°30' W 074°08'6 0.2
2015-Jun-24 05:17N 40°32' W 074°15'0 0.0
2015-Jun-24 04:32N 40°32' W 074°15'  

Dump ship's entire track history